sat.trackr.live / text

‹ back to catalog

STARLINK-36621

NORAD 67561 · 2026-016A

PAYLOAD ACTIVE UNKNOWN

§ Identity

Operator
Country
US
Launch date
2026-01-25
Launch site
AFWTR
Launch vehicle
Mass (kg)
RCS (m²)

Purposes: comms

External: N2YO · Heavens-Above · Gunter

§ Orbital elements

Epoch: 2026-09-19T10:41:32.769888Z

Period
93.90 min
Inclination
97.2834°
Eccentricity
0.0002545
Mean motion
15.33488679 rev/d
Perigee alt
463.7 km
Apogee alt
467.2 km
Semi-major
6,843.6 km
B*
5.3462e-4
RAAN
321.0412°
Arg perigee
92.4469°
Mean anomaly
267.7066°
Rev number
3,655

§ Raw data

STARLINK-366211 67561U 26016A   26262.44551817  .00017249  00000+0  53462-3 0  99982 67561  97.2834 321.0412 0002545  92.4469 267.7066 15.33488679 36550

JSON: /api/v1/satellites/67561 · /tle

For live sub-satellite position, see the globe view (requires WebGL).

§ Visibility from observer

Set your observer location to see the next 7 days of passes ≥ 10°. The values pass through the URL so the page stays shareable.

No JS? Fill the form by hand. The geolocation button needs JavaScript.